User: anonymous   Login
Location: Bonny Doon Airfield
(37.0704°N, 122.1252°W)
Time: 04:57:11
(UTC-07:00)
Language:

Vanguard 3 - Orbit

View from above orbital plane
View from above orbital plane
View from above satellite
View from above satellite

Ground track
Ground track

The orbit data is extracted from the following two-line orbital elements,

1    20U 59007A   18168.67624966 +.00000068 +00000-0 +26386-4 0  9996
2    20 033.3462 265.2131 1667385 350.5337 006.7173 11.55587631146048
Epoch (UTC): 17 June 2018 16:13:47
Eccentricity: 0.1667385
inclination: 33.3462°
perigee height: 508 km
apogee height: 3264 km
right ascension of ascending node: 265.2131°
argument of perigee: 350.5337°
revolutions per day: 11.55587631
mean anomaly at epoch: 6.7173°
orbit number at epoch: 14604

The dashed part of the orbit path shows where the satellite is in the earth's shadow,  

DLR